GW0392 Weather Reports


time (UTC)temp
C
wind
direction
speed
KPH
gust
KPH
rain 1hr
cm
rain 24hr
cm
rain mn
cm
humidity
%
barometer
mb
20260506104230 19 214 0.0 1.6 0.00 0.00 0.00 85 1011.1
20260506103727 19 222 0.0 1.6 0.00 0.00 0.00 86 1011.4
20260506103224 18 204 3.2 3.2 0.00 0.00 0.00 88 1011.2
20260506102722 19 218 1.6 1.6 0.00 0.00 0.00 87 1011.1
20260506102220 19 228 0.0 0.0 0.00 0.00 0.00 85 1011.0
20260506101716 20 282 1.6 3.2 0.00 0.00 0.00 84 1010.7
20260506101212 20 219 1.6 3.2 0.00 0.00 0.00 81 1010.8
20260506100711 20 225 0.0 1.6 0.00 0.00 0.00 80 1010.8
20260506100209 20 163 3.2 3.2 0.00 0.00 0.00 80 1010.9
20260506095707 20 214 3.2 3.2 0.00 0.00 0.00 79 1011.1
20260506095203 20 175 3.2 4.8 0.00 0.00 0.00 79 1011.2
20260506094700 20 207 4.8 9.7 0.00 0.00 0.00 78 1011.1
20260506094158 20 208 4.8 9.7 0.00 0.00 0.00 77 1010.6
20260506093657 20 221 3.2 11.3 0.00 0.00 0.00 77 1010.8
20260506093153 20 198 1.6 3.2 0.00 0.00 0.00 77 1010.8
20260506092651 20 215 0.0 3.2 0.00 0.00 0.00 77 1010.9
20260506092148 20 220 1.6 4.8 0.00 0.00 0.00 77 1010.9
20260506091646 20 225 1.6 8.0 0.00 0.00 0.00 77 1011.1
20260506091143 21 214 0.0 1.6 0.00 0.00 0.00 77 1010.8
20260506090641 21 190 3.2 8.0 0.00 0.00 0.00 76 1010.9
20260506090137 21 212 1.6 4.8 0.00 0.00 0.00 76 1010.8
20260506085634 21 210 0.0 1.6 0.00 0.00 0.00 76 1010.9
20260506085131 21 211 1.6 3.2 0.00 0.00 0.00 76 1010.9
20260506084627 21 229 0.0 3.2 0.00 0.00 0.00 76 1010.8
20260506084124 21 210 1.6 8.0 0.00 0.00 0.00 76 1010.9
20260506083621 20 222 0.0 1.6 0.00 0.00 0.00 76 1010.7
20260506083119 20 220 1.6 3.2 0.00 0.00 0.00 77 1010.9
20260506082615 20 218 1.6 3.2 0.00 0.00 0.00 77 1010.5
20260506082111 20 220 0.0 1.6 0.00 0.00 0.00 76 1010.8
20260506081609 21 216 0.0 1.6 0.00 0.00 0.00 76 1010.8
20260506081107 21 222 0.0 1.6 0.00 0.00 0.00 75 1010.5
20260506080604 21 222 0.0 4.8 0.00 0.00 0.00 75 1010.6
20260506073044 20 224 0.0 1.6 0.00 0.00 0.00 75 1010.4
20260506072541 20 222 0.0 1.6 0.00 0.00 0.00 76 1010.3
20260506072039 20 221 1.6 1.6 0.00 0.00 0.00 75 1010.5
20260506071537 20 219 1.6 4.8 0.00 0.00 0.00 75 1010.4
20260506071034 20 222 0.0 1.6 0.00 0.00 0.00 75 1010.6
20260506070531 20 218 1.6 3.2 0.00 0.00 0.00 75 1010.3
20260506062509 18 222 0.0 0.0 0.00 0.00 0.00 79 1010.8
20260506062005 18 218 0.0 1.6 0.00 0.00 0.00 78 1011.1
20260506061501 18 228 0.0 0.0 0.00 0.00 0.00 78 1011.2
20260506060959 18 227 0.0 0.0 0.00 0.00 0.00 78 1011.3
20260506060457 18 227 0.0 0.0 0.00 0.00 0.00 77 1011.5
20260506050926 18 229 0.0 0.0 0.00 0.00 0.00 79 1011.8
20260506050424 18 230 0.0 0.0 0.00 0.00 0.00 77 1011.6
20260506044914 18 223 0.0 3.2 0.00 0.00 0.00 74 1011.4
20260506044412 18 221 0.0 0.0 0.00 0.00 0.00 76 1011.6
20260506043909 18 221 0.0 0.0 0.00 0.00 0.00 76 1011.8
20260506043406 18 221 0.0 0.0 0.00 0.00 0.00 77 1011.6
20260506042904 18 221 0.0 0.0 0.00 0.00 0.00 77 1011.7
20260506042403 19 221 0.0 1.6 0.00 0.00 0.00 75 1011.6
20260506041901 18 221 0.0 0.0 0.00 0.00 0.00 74 1011.7
20260506041358 19 221 0.0 0.0 0.00 0.00 0.00 75 1011.6
20260506040855 19 221 0.0 0.0 0.00 0.00 0.00 73 1011.7
20260506040352 19 221 0.0 0.0 0.00 0.00 0.00 73 1011.8
20260506035848 19 221 0.0 0.0 0.00 0.00 0.00 73 1011.6
20260506035346 19 221 0.0 0.0 0.00 0.00 0.00 73 1011.6
20260506034843 19 221 0.0 0.0 0.00 0.00 0.00 72 1011.7
20260506034340 19 221 0.0 0.0 0.00 0.00 0.00 72 1011.7
20260506033837 19 221 0.0 0.0 0.00 0.00 0.00 71 1012.0
20260506033334 20 221 0.0 0.0 0.00 0.00 0.00 71 1011.8
20260506032831 20 221 0.0 0.0 0.00 0.00 0.00 71 1012.1
20260506032328 20 221 0.0 0.0 0.00 0.00 0.00 71 1012.1
20260506031825 20 221 0.0 0.0 0.00 0.00 0.00 70 1012.2
20260506031322 20 221 0.0 0.0 0.00 0.00 0.00 70 1012.0
20260506030819 20 221 0.0 0.0 0.00 0.00 0.00 69 1011.9
20260506030317 20 220 0.0 0.0 0.00 0.00 0.00 69 1011.7
20260506025814 20 222 0.0 0.0 0.00 0.00 0.00 68 1011.8
20260506025310 20 222 0.0 0.0 0.00 0.00 0.00 69 1011.9
20260506024808 20 222 0.0 0.0 0.00 0.00 0.00 68 1011.9
20260506024304 20 223 0.0 0.0 0.00 0.00 0.00 69 1012.0
20260506023800 20 227 0.0 0.0 0.00 0.00 0.00 69 1012.0
20260506023258 20 228 0.0 0.0 0.00 0.00 0.00 68 1012.2
20260506022754 20 224 0.0 0.0 0.00 0.00 0.00 69 1012.2
20260506022252 20 224 0.0 0.0 0.00 0.00 0.00 69 1012.0
20260506021750 20 224 0.0 0.0 0.00 0.00 0.00 68 1011.8
20260506021247 20 223 0.0 0.0 0.00 0.00 0.00 67 1011.7
20260506020743 20 234 0.0 0.0 0.00 0.00 0.00 66 1011.7
20260506020241 21 223 0.0 0.0 0.00 0.00 0.00 64 1011.6
20260506015738 21 211 1.6 1.6 0.00 0.00 0.00 64 1012.0
20260506015236 21 219 1.6 1.6 0.00 0.00 0.00 65 1011.7
20260506014732 21 210 1.6 1.6 0.00 0.00 0.00 64 1011.6
20260506014229 21 219 0.0 3.2 0.00 0.00 0.00 64 1011.5
20260506013726 21 220 1.6 1.6 0.00 0.00 0.00 65 1011.4
20260506013223 21 213 1.6 1.6 0.00 0.00 0.00 64 1011.6
20260506012719 20 219 0.0 0.0 0.00 0.00 0.00 64 1011.5
20260506012217 20 223 0.0 3.2 0.00 0.00 0.00 64 1011.3
20260506011714 20 215 1.6 3.2 0.00 0.00 0.00 66 1011.1
20260506011210 20 214 1.6 1.6 0.00 0.00 0.00 67 1011.3
20260506010709 20 220 3.2 3.2 0.00 0.00 0.00 68 1011.3
20260506010206 20 214 1.6 1.6 0.00 0.00 0.00 69 1011.1
20260506005703 20 218 1.6 3.2 0.00 0.00 0.00 70 1011.3
20260506005159 20 213 1.6 1.6 0.00 0.00 0.00 72 1011.1
20260506004655 20 218 0.0 1.6 0.00 0.00 0.00 70 1010.9
20260506004153 20 220 0.0 0.0 0.00 0.00 0.00 71 1011.3
20260506003649 19 219 0.0 1.6 0.00 0.00 0.00 74 1011.1
20260506003145 19 219 0.0 1.6 0.00 0.00 0.00 76 1011.1
20260506002641 19 220 1.6 1.6 0.00 0.00 0.00 77 1011.3
20260506002138 19 220 0.0 0.0 0.00 0.00 0.00 77 1011.2
20260506001633 19 220 0.0 0.0 0.00 0.00 0.00 78 1011.2
20260506001131 20 220 0.0 0.0 0.00 0.00 0.00 78 1011.3
20260506000628 20 220 0.0 0.0 0.00 0.00 0.00 76 1011.4
20260506000125 20 220 0.0 0.0 0.00 0.00 0.00 77 1011.4
20260505235623 20 220 0.0 0.0 0.00 0.00 0.00 76 1011.5
20260505235120 20 220 0.0 0.0 0.00 0.00 0.00 74 1011.7
20260505234617 20 220 0.0 0.0 0.00 0.00 0.00 74 1011.4
20260505234114 20 220 0.0 0.0 0.00 0.00 0.00 76 1011.5
20260505233611 20 220 0.0 0.0 0.00 0.00 0.00 73 1011.4
20260505233108 20 220 0.0 0.0 0.00 0.00 0.00 69 1011.3
20260505232606 21 219 0.0 0.0 0.00 0.00 0.00 68 1011.4
20260505232104 21 219 0.0 0.0 0.00 0.00 0.00 67 1011.4
20260505231600 21 223 0.0 3.2 0.00 0.00 0.00 66 1011.6
20260505231059 21 209 1.6 1.6 0.00 0.00 0.00 68 1011.5
20260505230556 21 218 0.0 1.6 0.00 0.00 0.00 70 1011.7
20260505230052 21 220 0.0 0.0 0.00 0.00 0.00 67 1011.5
20260505225549 21 218 1.6 1.6 0.00 0.00 0.00 66 1011.3
20260505225045 21 220 1.6 1.6 0.00 0.00 0.00 66 1011.4
20260505224542 20 223 0.0 3.2 0.00 0.00 0.00 66 1011.2
20260505224040 20 219 1.6 3.2 0.00 0.00 0.00 73 1011.0
20260505223537 20 215 0.0 1.6 0.00 0.00 0.00 68 1011.7
20260505223033 20 220 0.0 0.0 0.00 0.00 0.00 69 1011.6
20260505222529 20 220 0.0 0.0 0.00 0.00 0.00 72 1011.8
20260505222025 20 220 0.0 0.0 0.00 0.00 0.00 75 1011.6
20260505221523 20 220 0.0 1.6 0.00 0.00 0.00 75 1011.6
20260505221019 20 220 0.0 1.6 0.00 0.00 0.00 74 1011.4
20260505220517 20 221 0.0 1.6 0.00 0.00 0.00 78 1011.6
20260505220014 20 212 1.6 1.6 0.00 0.00 0.00 75 1011.7
20260505215512 20 223 0.0 1.6 0.00 0.00 0.00 69 1011.6
20260505215010 20 205 1.6 3.2 0.00 0.00 0.00 71 1011.5
20260505214508 20 225 0.0 1.6 0.00 0.00 0.00 76 1011.3
20260505214004 20 212 1.6 3.2 0.00 0.00 0.00 71 1011.4
20260505213502 20 233 1.6 4.8 0.00 0.00 0.00 67 1011.4
20260505212958 20 162 3.2 4.8 0.00 0.00 0.00 66 1011.2
20260505212455 20 183 1.6 3.2 0.00 0.00 0.00 69 1011.6
20260505211951 20 223 0.0 1.6 0.00 0.00 0.00 66 1011.8
20260505211449 21 220 0.0 0.0 0.00 0.00 0.00 68 1011.8
20260505210945 22 216 0.0 0.0 0.00 0.00 0.00 61 1011.9
20260505210442 22 223 0.0 0.0 0.00 0.00 0.00 54 1012.0
20260505205939 23 223 0.0 0.0 0.00 0.00 0.00 51 1011.9
20260505205438 23 204 3.2 4.8 0.00 0.00 0.00 45 1011.9
20260505204934 23 202 1.6 1.6 0.00 0.00 0.00 46 1012.0
20260505204432 23 222 0.0 3.2 0.00 0.00 0.00 46 1012.0
20260505203929 23 219 1.6 3.2 0.00 0.00 0.00 43 1011.8
20260505203425 24 218 1.6 3.2 0.00 0.00 0.00 44 1012.0
20260505202921 24 199 1.6 3.2 0.00 0.00 0.00 42 1012.1
20260505202418 24 224 0.0 4.8 0.00 0.00 0.00 42 1012.1
20260505201915 24 146 3.2 8.0 0.00 0.00 0.00 40 1012.2
20260505201412 24 183 4.8 11.3 0.00 0.00 0.00 41 1012.2
20260505200910 25 195 6.4 9.7 0.00 0.00 0.00 40 1012.4
20260505200407 25 207 1.6 4.8 0.00 0.00 0.00 42 1012.1
20260505195902 25 215 3.2 12.9 0.00 0.00 0.00 42 1012.5
20260505195400 25 224 3.2 8.0 0.00 0.00 0.00 42 1012.7
20260505194857 25 210 0.0 3.2 0.00 0.00 0.00 42 1012.5
20260505194354 25 214 1.6 8.0 0.00 0.00 0.00 41 1012.7
20260505193854 25 199 0.0 4.8 0.00 0.00 0.00 40 1012.5
20260505193353 26 182 4.8 14.5 0.00 0.00 0.00 37 1012.7
20260505192850 26 219 1.6 11.3 0.00 0.00 0.00 40 1012.7
20260505192348 25 191 3.2 17.7 0.00 0.00 0.00 38 1012.8
20260505191845 25 212 3.2 16.1 0.00 0.00 0.00 38 1012.8
20260505191344 26 177 3.2 9.7 0.00 0.00 0.00 36 1012.9
20260505190840 25 160 1.6 3.2 0.00 0.00 0.00 37 1013.0
20260505190336 25 226 0.0 9.7 0.00 0.00 0.00 37 1012.8
20260505185831 25 199 1.6 12.9 0.00 0.00 0.00 36 1012.9
20260505185328 26 239 3.2 8.0 0.00 0.00 0.00 34 1013.1
20260505184824 26 220 1.6 8.0 0.00 0.00 0.00 38 1013.0
20260505184321 25 227 1.6 8.0 0.00 0.00 0.00 41 1012.9
20260505183818 25 151 6.4 11.3 0.00 0.00 0.00 38 1013.0
20260505183315 25 246 3.2 11.3 0.00 0.00 0.00 42 1013.1
20260505182812 25 157 4.8 12.9 0.00 0.00 0.00 43 1013.0
20260505182309 25 124 3.2 8.0 0.00 0.00 0.00 45 1013.3
20260505181805 25 254 3.2 12.9 0.00 0.00 0.00 44 1013.4
20260505181303 25 122 9.7 16.1 0.00 0.00 0.00 42 1013.6
20260505180759 26 131 4.8 4.8 0.00 0.00 0.00 41 1013.7
20260505180256 25 221 6.4 9.7 0.00 0.00 0.00 40 1013.6
20260505175752 25 221 0.0 1.6 0.00 0.00 0.00 44 1013.5
20260505175249 25 198 1.6 8.0 0.00 0.00 0.00 44 1013.9
20260505174745 25 231 1.6 4.8 0.00 0.00 0.00 40 1013.6
20260505174243 25 220 1.6 3.2 0.00 0.00 0.00 41 1013.8
20260505173738 26 217 3.2 3.2 0.00 0.00 0.00 43 1013.8
20260505173235 25 225 3.2 9.7 0.00 0.00 0.00 42 1013.9
20260505172732 25 224 4.8 8.0 0.00 0.00 0.00 42 1013.7
20260505172229 25 228 0.0 3.2 0.00 0.00 0.00 45 1013.9
20260505171729 25 185 3.2 12.9 0.00 0.00 0.00 41 1014.1
20260505171226 25 212 4.8 4.8 0.00 0.00 0.00 42 1014.4
20260505170723 25 224 1.6 8.0 0.00 0.00 0.00 44 1014.5
20260505170220 24 216 3.2 4.8 0.00 0.00 0.00 46 1014.6
20260505165715 23 231 0.0 4.8 0.00 0.00 0.00 48 1014.6
20260505165212 23 200 0.0 4.8 0.00 0.00 0.00 47 1014.7
20260505164707 23 161 8.0 16.1 0.00 0.00 0.00 47 1014.8
20260505164204 23 188 3.2 11.3 0.00 0.00 0.00 48 1014.8
20260505163702 23 226 1.6 3.2 0.00 0.00 0.00 48 1014.5
20260505163201 24 190 3.2 8.0 0.00 0.00 0.00 49 1014.8
20260505162658 23 190 3.2 9.7 0.00 0.00 0.00 52 1014.9
20260505162155 23 116 3.2 8.0 0.00 0.00 0.00 52 1015.1
20260505161652 23 209 3.2 4.8 0.00 0.00 0.00 52 1014.7
20260505161149 23 221 3.2 11.3 0.00 0.00 0.00 54 1015.0
20260505160647 22 217 0.0 3.2 0.00 0.00 0.00 58 1015.0
20260505160144 22 181 4.8 8.0 0.00 0.00 0.00 55 1014.9
20260505153123 21 184 3.2 9.7 0.00 0.00 0.00 60 1015.3
20260505152620 21 217 1.6 4.8 0.00 0.00 0.00 61 1015.2
20260505152116 21 227 1.6 3.2 0.00 0.00 0.00 62 1015.3
20260505151611 21 223 1.6 8.0 0.00 0.00 0.00 63 1015.3
20260505151109 21 148 3.2 3.2 0.00 0.00 0.00 63 1015.5
20260505150605 21 227 1.6 4.8 0.00 0.00 0.00 62 1015.5
20260505140530 18 208 0.0 3.2 0.00 0.00 0.00 67 1015.3
20260505124944 12 228 0.0 0.0 0.00 0.00 0.00 89 1015.6
20260505124441 12 230 0.0 0.0 0.00 0.00 0.00 90 1015.4
20260505123937 12 230 0.0 0.0 0.00 0.00 0.00 91 1015.1
20260505123433 11 227 0.0 0.0 0.00 0.00 0.00 92 1015.1
20260505122929 11 227 0.0 0.0 0.00 0.00 0.00 92 1014.8
20260505122427 11 225 0.0 0.0 0.00 0.00 0.00 94 1014.8
20260505121923 11 225 0.0 0.0 0.00 0.00 0.00 94 1015.1
20260505121421 11 222 0.0 0.0 0.00 0.00 0.00 95 1014.7
20260505120916 10 225 0.0 0.0 0.00 0.00 0.00 97 1014.9
20260505120413 10 225 0.0 0.0 0.00 0.00 0.00 97 1014.9
20260505115912 10 225 0.0 0.0 0.00 0.00 0.00 98 1014.9
20260505115409 10 225 0.0 0.0 0.00 0.00 0.00 98 1014.7
20260505114907 10 225 0.0 0.0 0.00 0.00 0.00 98 1014.8
20260505114403 10 225 0.0 0.0 0.00 0.00 0.00 98 1014.8
20260505113859 10 226 0.0 0.0 0.00 0.00 0.00 98 1014.8
20260505113356 10 226 0.0 0.0 0.00 0.00 0.00 98 1014.5
20260505112851 10 226 0.0 0.0 0.00 0.00 0.00 98 1014.6
20260505112350 9 226 0.0 0.0 0.00 0.00 0.00 98 1014.4
20260505111845 9 226 0.0 0.0 0.00 0.00 0.00 98 1014.5
20260505111340 9 226 0.0 0.0 0.00 0.00 0.00 98 1014.4
20260505110836 9 226 0.0 0.0 0.00 0.00 0.00 98 1014.4
20260505110334 9 226 0.0 0.0 0.00 0.00 0.00 97 1014.4